Location: Izdebno
(52.6670°N, 16.2170°E)
Time: 03:22:34
(UTC+02:00)

Transit 4A - Pass Details

Date: 28 February 2024
Orbit: 871 x 972 km, 66.8° (Epoch: 22 April)

Event Time Altitude Azimuth Distance (km) Brightness Sun altitude
Rises 07:12:50 0° 317° (NW) 3,526 10.4 3.2°
Reaches altitude 10° 07:15:35 10° 326° (NW) 2,569 9.8 3.6°
Maximum altitude 07:21:01 36° 32° (NNE) 1,375 9.1 4.4°
Drops below altitude 10° 07:26:21 10° 98° (E) 2,525 12.3 5.1°
Sets 07:29:02 0° 107° (ESE) 3,457 13.7 5.5°
